Probability
0 0 0 0 0 0 0 0 0 0 0 0 0 0 0 0 0 0 0 0 0 0 0 0 3 3 3 6 10 16 26 29 32 45 42 58 81 81 77 84 84 74 45 35 26 45 61 71 77
0 0 0 0 0 0 0 0 0 0 0 0 0 0 0 0 0 0 0 0 0 0 0 0 0 0 0 0 3 3 10 10 10 13 26 39 61 84 94 90 87 71 74 55 39 45 61 71 87
0 0 0 0 0 0 0 0 0 0 0 0 0 0 0 0 0 0 0 0 0 0 0 0 0 0 0 0 0 0 0 0 0 3 6 16 29 42 61 74 81 74 68 61 74 61 61 77 90
0 0 0 0 0 0 0 0 0 0 0 0 0 0 0 0 0 0 0 0 0 0 0 0 0 0 0 0 0 0 0 0 0 0 0 0 3 19 26 32 39 48 74 74 77 84 84 84 97
0 0 0 0 0 0 0 0 0 0 0 0 0 0 0 0 0 0 0 0 0 0 0 0 0 0 0 0 0 0 0 0 0 0 0 0 0 3 10 13 16 19 42 58 61 74 84 90 90
0 0 0 0 0 0 0 0 0 0 0 0 0 0 0 0 0 0 0 0 0 0 0 0 0 0 0 0 0 0 0 0 0 0 0 0 0 0 0 0 6 6 16 19 42 58 61 87 87
0 0 0 0 0 0 0 0 0 0 0 0 0 0 0 0 0 0 0 0 0 0 0 0 0 0 0 0 0 0 0 0 0 0 0 0 0 0 0 0 0 0 6 6 13 19 35 45 74
0 0 0 0 0 0 0 0 0 0 0 0 0 0 0 0 0 0 0 0 0 0 0 0 0 0 0 0 0 0 0 0 0 0 0 0 0 0 0 0 0 0 0 0 6 6 6 26 55
0 0 0 0 0 0 0 0 0 0 0 0 0 0 0 0 0 0 0 0 0 0 0 0 0 0 0 0 0 0 0 0 0 0 0 0 0 0 0 0 0 0 0 0 0 3 6 23 32
0 0 0 0 0 0 0 0 0 0 0 0 0 0 0 0 0 0 0 0 0 0 0 0 0 0 0 0 0 0 0 0 0 0 0 0 0 0 0 0 0 0 0 0 0 0 3 3 0
0 0 0 0 0 0 0 0 0 0 0 0 0 0 0 0 0 0 0 0 0 0 0 0 0 0 0 0 0 0 0 0 0 0 0 0 0 0 0 0 0 0 0 0 0 0 0 0 0
0 0 0 0 0 0 0 0 0 0 0 0 0 0 0 0 0 0 0 0 0 0 0 0 0 0 0 0 0 0 0 0 0 0 0 0 0 0 0 0 0 0 0 0 0 0 0 0 0
0 0 0 0 0 0 0 0 0 0 0 0 0 0 0 0 0 0 0 0 0 0 0 0 0 0 0 0 0 0 0 0 0 0 0 0 0 0 0 0 0 0 0 0 0 0 0 0 0
0 0 0 0 0 0 0 0 0 0 0 0 0 0 0 0 0 0 0 0 0 0 0 0 0 0 0 0 0 0 0 0 0 0 0 0 0 0 0 0 0 0 0 0 0 0 0 0 0
0 0 0 0 0 0 0 0 0 0 0 0 0 0 0 0 0 0 0 0 0 0 0 0 0 0 0 0 0 0 0 0 0 0 0 0 0 0 0 0 0 0 0 0 0 0 0 0 0
0 0 0 0 0 0 0 0 0 0 0 0 0 0 0 0 0 0 0 0 0 0 0 0 0 0 0 0 0 0 0 0 0 0 0 0 0 0 0 0 0 0 0 0 0 0 0 0 0
0 0 0 0 0 0 0 0 0 0 0 0 0 0 0 0 0 0 0 0 0 0 0 0 0 0 0 0 0 0 0 0 0 0 0 0 0 0 0 0 0 0 0 0 0 0 0 0 0
0 0 0 0 0 0 0 0 0 0 0 0 0 0 0 0 0 0 0 0 0 0 0 0 0 0 0 0 0 0 0 0 0 0 0 0 0 0 0 0 0 0 0 0 0 0 0 0 0
0 0 0 0 0 0 0 0 0 0 0 0 0 0 0 0 0 0 0 0 0 0 0 0 0 0 0 0 0 0 0 0 0 0 0 0 0 0 0 0 0 0 0 0 0 0 0 0 0
0 0 0 0 0 0 0 0 0 0 0 0 0 0 0 0 0 0 0 0 0 0 0 0 0 0 0 0 0 0 0 0 0 0 0 0 0 0 0 0 0 0 0 0 0 0 0 0 0
0 0 0 0 0 0 0 0 0 0 0 0 0 0 0 0 0 0 0 0 0 0 0 0 0 0 0 0 0 0 0 0 0 0 0 0 0 0 0 0 0 0 0 0 0 0 0 0 0
0 0 0 0 0 0 0 0 0 0 0 0 0 0 0 0 0 0 0 0 0 0 0 0 0 0 0 0 0 0 0 0 0 0 0 0 0 0 0 0 0 0 0 0 0 0 0 0 0
0 0 0 0 0 0 0 0 0 0 0 0 0 0 0 0 0 0 0 0 0 0 0 0 0 0 0 0 0 0 0 0 0 0 0 0 0 0 0 0 0 0 0 0 0 0 0 0 0
0 0 0 0 0 0 0 0 0 0 0 0 0 0 0 0 0 0 0 0 0 0 0 0 0 0 0 0 0 0 0 0 0 0 0 0 0 0 0 0 0 0 0 0 0 0 0 0 0
0 0 0 0 0 0 0 0 0 0 0 0 0 0 0 0 0 0 0 0 0 0 0 0 0 0 0 0 0 0 0 0 0 0 0 0 0 0 0 0 0 0 0 0 0 0 0 0 0
0 0 0 0 0 0 0 0 0 0 0 0 0 0 0 0 0 0 0 0 0 0 0 0 0 0 0 0 0 0 0 0 0 0 0 0 0 0 0 0 0 0 0 0 0 0 0 0 0
0 0 0 0 0 0 0 0 0 0 0 0 0 0 0 0 0 0 0 0 0 0 0 0 0 0 0 0 0 0 0 0 0 0 0 0 0 0 0 0 0 0 0 0 0 0 0 0 0
0 0 0 0 0 0 0 0 0 0 0 0 0 0 0 0 0 0 0 0 0 0 0 0 0 0 0 0 0 0 0 0 0 0 0 0 0 0 0 0 0 0 0 0 0 0 0 0 0
0 0 0 0 0 0 0 0 0 0 0 0 0 0 0 0 0 0 0 0 0 0 0 0 0 0 0 0 0 0 0 0 0 0 0 0 0 0 0 0 0 0 0 0 0 0 0 0 0
0 0 0 0 0 0 0 0 0 0 0 0 0 0 0 0 0 0 0 0 0 0 0 0 0 0 0 0 0 0 0 0 0 0 0 0 0 0 0 0 0 0 0 0 0 0 0 0 0
Height
5856 5856 5856 5857 5858 5859 5858 5860 5861 5862 5863 5864 5864 5864 5864 5863 5864 5865 5863 5860 5860 5858 5857 5856 5855 5854 5853 5852 5851 5850 5850 5849 5848 5848 5848 5847 5847 5847 5847 5847 5847 5848 5848 5849 5850 5850 5851 5852 5852
5856 5856 5858 5858 5858 5858 5859 5860 5861 5862 5863 5864 5864 5864 5864 5862 5862 5861 5859 5858 5857 5856 5854 5853 5851 5850 5849 5847 5846 5845 5844 5843 5842 5841 5841 5841 5840 5840 5840 5840 5840 5841 5841 5842 5843 5844 5845 5846 5847
5857 5858 5859 5858 5857 5859 5860 5860 5861 5862 5863 5863 5863 5863 5863 5861 5860 5859 5857 5856 5855 5853 5852 5850 5848 5846 5845 5843 5841 5839 5838 5837 5835 5834 5833 5833 5833 5833 5833 5832 5833 5833 5833 5834 5835 5836 5838 5839 5840
5858 5860 5860 5859 5858 5860 5860 5861 5862 5863 5863 5863 5863 5862 5860 5859 5858 5857 5855 5854 5852 5850 5848 5846 5844 5842 5840 5838 5836 5834 5832 5830 5828 5827 5826 5825 5824 5824 5824 5824 5824 5824 5825 5826 5826 5828 5829 5831 5833
5860 5861 5861 5860 5860 5861 5861 5862 5863 5863 5862 5862 5862 5861 5859 5858 5856 5854 5853 5851 5849 5847 5845 5842 5840 5837 5835 5832 5830 5827 5825 5823 5821 5819 5817 5816 5815 5814 5814 5814 5814 5815 5815 5816 5817 5818 5820 5822 5824
5861 5861 5861 5861 5862 5862 5862 5863 5863 5862 5862 5861 5861 5859 5857 5856 5854 5852 5850 5848 5846 5844 5841 5838 5835 5832 5829 5826 5823 5820 5817 5815 5812 5810 5808 5806 5805 5804 5803 5803 5803 5804 5805 5806 5807 5809 5810 5812 5814
5862 5862 5862 5863 5863 5863 5864 5863 5863 5862 5861 5861 5860 5858 5856 5854 5853 5851 5848 5846 5843 5840 5837 5834 5831 5827 5823 5820 5816 5813 5809 5806 5803 5801 5798 5796 5794 5793 5792 5792 5791 5792 5793 5794 5796 5797 5799 5801 5803
5864 5865 5864 5864 5865 5865 5864 5864 5863 5863 5862 5861 5859 5858 5855 5854 5851 5849 5846 5843 5839 5836 5832 5828 5824 5820 5816 5812 5808 5804 5800 5796 5793 5790 5788 5785 5783 5781 5780 5779 5779 5779 5780 5781 5783 5785 5787 5789 5791
5867 5867 5866 5867 5867 5866 5866 5865 5865 5863 5862 5861 5859 5856 5854 5852 5849 5845 5842 5838 5834 5830 5825 5821 5816 5811 5806 5801 5797 5792 5788 5784 5781 5778 5775 5773 5770 5768 5767 5766 5765 5765 5765 5767 5769 5771 5773 5776 5779
5869 5869 5869 5869 5869 5868 5867 5867 5866 5864 5862 5860 5858 5855 5852 5849 5845 5841 5837 5832 5827 5822 5817 5811 5806 5800 5794 5789 5783 5779 5774 5769 5765 5762 5759 5757 5755 5753 5752 5751 5750 5750 5750 5752 5754 5756 5758 5761 5765
5871 5871 5871 5871 5870 5869 5868 5867 5866 5863 5861 5858 5855 5852 5848 5844 5840 5835 5830 5825 5819 5814 5808 5801 5795 5788 5781 5775 5769 5763 5757 5752 5747 5743 5740 5738 5736 5735 5734 5733 5733 5734 5734 5736 5738 5740 5742 5745 5749
5873 5873 5873 5872 5871 5870 5869 5867 5865 5862 5859 5856 5852 5848 5844 5839 5834 5829 5823 5817 5811 5804 5797 5790 5782 5775 5767 5759 5752 5745 5738 5732 5727 5722 5719 5716 5714 5713 5712 5712 5713 5714 5716 5718 5721 5723 5726 5729 5733
5875 5875 5874 5873 5872 5871 5868 5866 5863 5860 5856 5852 5848 5843 5839 5834 5828 5822 5815 5808 5801 5793 5785 5776 5767 5759 5750 5742 5733 5724 5717 5710 5704 5699 5694 5691 5690 5688 5687 5688 5689 5691 5694 5698 5701 5704 5708 5712 5716
5877 5876 5875 5874 5872 5870 5868 5865 5861 5857 5853 5848 5843 5839 5833 5827 5821 5814 5806 5798 5789 5780 5771 5761 5752 5741 5731 5721 5712 5702 5694 5685 5678 5672 5667 5664 5662 5661 5660 5661 5662 5665 5669 5674 5678 5682 5687 5693 5698
5877 5876 5875 5873 5871 5869 5867 5863 5857 5853 5848 5844 5839 5833 5827 5821 5813 5805 5796 5787 5777 5767 5756 5745 5734 5723 5711 5700 5688 5678 5668 5660 5652 5646 5641 5637 5635 5633 5633 5633 5635 5638 5642 5647 5652 5658 5664 5671 5678
5877 5876 5875 5872 5869 5866 5864 5861 5855 5849 5844 5839 5833 5826 5820 5812 5804 5795 5785 5775 5764 5752 5740 5728 5716 5704 5691 5678 5665 5654 5644 5636 5628 5622 5618 5614 5612 5610 5608 5608 5609 5611 5615 5619 5625 5632 5640 5648 5655
5877 5875 5872 5870 5866 5863 5859 5856 5850 5844 5838 5833 5826 5819 5812 5803 5794 5784 5773 5762 5750 5737 5724 5711 5698 5684 5670 5657 5644 5633 5624 5616 5610 5604 5599 5596 5593 5590 5588 5587 5587 5587 5589 5593 5598 5605 5613 5622 5631
5874 5872 5869 5867 5862 5859 5854 5851 5845 5839 5833 5826 5820 5812 5803 5793 5782 5772 5760 5748 5735 5721 5707 5693 5678 5664 5650 5638 5627 5617 5608 5600 5594 5588 5583 5579 5576 5573 5571 5569 5568 5567 5568 5569 5572 5578 5586 5595 5605
5872 5870 5867 5863 5858 5854 5850 5846 5841 5834 5828 5820 5812 5803 5793 5783 5771 5759 5747 5734 5721 5706 5692 5676 5661 5646 5633 5622 5612 5603 5595 5587 5579 5573 5567 5562 5559 5557 5555 5553 5552 5550 5550 5549 5550 5554 5560 5569 5578
5870 5867 5863 5861 5856 5851 5846 5841 5837 5828 5821 5813 5803 5794 5783 5773 5760 5748 5735 5721 5706 5691 5676 5659 5644 5630 5617 5606 5595 5586 5577 5570 5563 5556 5550 5545 5541 5539 5537 5536 5535 5534 5534 5533 5533 5534 5537 5544 5553
5867 5863 5859 5855 5851 5847 5841 5837 5832 5822 5813 5804 5794 5785 5774 5761 5749 5736 5722 5707 5692 5676 5659 5643 5628 5615 5602 5590 5580 5570 5560 5552 5545 5538 5532 5527 5523 5520 5519 5518 5518 5518 5518 5518 5517 5517 5519 5524 5530
5864 5860 5856 5851 5846 5841 5837 5829 5824 5812 5804 5796 5786 5775 5763 5750 5737 5723 5708 5693 5677 5661 5644 5628 5614 5600 5587 5575 5564 5554 5545 5537 5529 5522 5516 5511 5506 5502 5500 5499 5499 5500 5501 5502 5502 5502 5503 5505 5511
5860 5856 5851 5847 5841 5836 5828 5820 5814 5805 5797 5787 5776 5764 5752 5739 5725 5710 5695 5678 5662 5646 5630 5615 5601 5587 5574 5562 5551 5542 5532 5524 5516 5509 5503 5497 5492 5487 5483 5482 5481 5482 5483 5485 5486 5487 5488 5489 5493
5856 5852 5848 5842 5835 5828 5820 5814 5809 5799 5788 5777 5766 5755 5742 5729 5714 5698 5682 5665 5649 5633 5618 5603 5589 5576 5563 5552 5541 5532 5523 5514 5506 5499 5492 5486 5480 5474 5469 5466 5465 5464 5465 5467 5469 5472 5473 5475 5477
5853 5848 5842 5835 5829 5824 5818 5811 5804 5791 5780 5770 5759 5747 5734 5719 5703 5687 5671 5655 5638 5623 5607 5592 5579 5567 5555 5544 5533 5523 5513 5504 5495 5488 5481 5474 5468 5463 5457 5453 5450 5449 5449 5450 5453 5456 5458 5460 5463
5849 5845 5840 5833 5827 5822 5813 5803 5797 5786 5776 5765 5753 5740 5724 5708 5692 5676 5660 5644 5628 5612 5597 5583 5570 5559 5547 5536 5525 5514 5504 5494 5485 5476 5469 5462 5455 5450 5445 5440 5437 5435 5434 5434 5436 5439 5442 5446 5449
5845 5841 5836 5830 5822 5814 5807 5800 5791 5781 5771 5760 5746 5730 5715 5700 5683 5666 5650 5633 5617 5602 5588 5575 5563 5551 5539 5528 5517 5506 5495 5485 5475 5467 5459 5451 5444 5438 5433 5428 5424 5422 5420 5420 5421 5423 5427 5431 5435
5843 5837 5832 5825 5816 5808 5801 5794 5786 5775 5764 5751 5737 5722 5707 5691 5674 5657 5641 5624 5609 5594 5580 5568 5556 5544 5532 5520 5508 5497 5486 5476 5466 5457 5449 5442 5435 5428 5422 5416 5412 5409 5407 5406 5406 5408 5411 5415 5420
5840 5834 5828 5821 5813 5804 5794 5791 5781 5769 5756 5743 5729 5714 5698 5682 5666 5649 5633 5616 5601 5587 5574 5562 5549 5537 5525 5513 5501 5489 5478 5468 5458 5449 5441 5433 5426 5419 5412 5406 5401 5397 5394 5392 5392 5393 5396 5401 5405
5836 5830 5823 5818 5810 5801 5792 5786 5773 5761 5749 5735 5721 5706 5690 5674 5657 5641 5625 5609 5595 5581 5568 5556 5543 5531 5518 5506 5494 5482 5470 5460 5451 5442 5433 5425 5417 5409 5402 5396 5390 5385 5382 5379 5378 5379 5382 5386 5391
Wind_Speed
2 1 1 0 2 2 4 4 3 3 4 6 8 10 13 16 17 18 18 18 19 21 23 25 26 28 30 32 34 35 37 38 39 39 38 37 36 36 35 34 34 33 32 32 31 30 30 30 29
5 4 3 3 4 6 5 5 3 3 4 5 6 9 11 13 14 15 16 16 17 18 20 21 23 24 26 28 30 32 34 35 37 38 39 39 39 39 39 38 38 37 36 36 35 34 33 33 33
8 8 7 8 9 8 7 6 4 4 4 4 5 7 8 10 11 13 15 16 17 18 20 21 22 23 25 27 28 30 32 33 34 36 38 39 40 40 41 41 41 40 40 39 38 37 37 36 36
10 9 10 11 10 9 8 7 6 6 6 6 6 7 9 10 12 13 15 16 18 19 21 22 24 25 26 28 30 31 33 34 35 36 38 39 40 41 42 42 42 42 42 42 41 41 40 39 39
9 11 11 10 10 9 9 8 8 8 8 8 8 9 10 11 12 13 15 16 18 19 21 23 25 26 28 29 31 33 35 36 38 39 40 41 42 43 44 44 44 44 44 44 44 44 43 42 42
9 13 11 11 10 10 10 10 9 9 9 8 9 10 10 12 13 14 15 17 19 21 23 25 27 28 30 32 34 35 37 38 40 41 42 44 45 46 47 47 48 48 48 47 47 46 46 45 44
13 13 12 12 11 11 10 10 10 9 9 9 9 10 11 13 14 16 19 21 23 25 28 30 32 34 36 37 39 40 41 43 43 44 45 46 47 48 49 49 50 51 51 51 50 49 49 48 47
13 13 13 13 12 12 11 11 10 10 10 10 11 12 14 17 19 22 24 27 30 32 35 38 40 42 44 45 47 48 49 50 50 51 51 51 51 52 52 52 53 53 53 54 54 53 53 51 50
14 15 14 14 13 13 12 12 11 11 12 13 15 17 20 22 25 28 31 34 37 40 43 46 48 50 52 54 56 57 58 59 59 59 59 58 58 57 57 56 56 56 56 56 56 56 56 56 55
15 15 14 14 13 13 12 12 13 14 15 18 20 23 25 28 31 34 37 40 43 47 50 53 56 58 60 62 63 65 66 67 67 67 67 66 66 65 63 62 61 60 59 58 58 58 58 58 57
16 15 14 13 13 12 13 14 15 17 19 22 25 28 31 34 37 40 43 46 49 52 55 58 61 63 65 67 69 70 72 72 73 73 74 73 72 72 70 69 67 66 64 62 61 60 60 59 59
15 14 13 12 12 13 15 17 19 22 24 27 30 33 36 39 41 44 47 50 53 57 59 63 65 68 70 72 74 75 76 77 77 77 77 77 76 75 75 75 73 72 70 68 66 64 63 62 61
13 12 12 12 13 15 18 20 23 26 28 31 33 36 39 41 44 48 51 54 57 60 63 66 69 72 74 76 78 79 80 80 80 80 80 80 79 79 78 78 77 77 75 73 71 69 68 66 65
11 11 11 12 14 17 20 23 26 28 31 33 35 38 41 44 48 51 55 58 61 64 67 70 73 75 77 79 81 82 83 83 83 83 82 81 81 80 80 79 78 79 78 77 76 74 72 70 69
9 10 12 14 17 20 22 23 28 30 33 35 38 41 44 47 51 54 58 61 64 68 71 74 77 79 80 82 84 84 84 83 81 79 77 75 74 73 74 74 74 76 77 79 79 78 77 75 73
10 12 14 17 20 23 25 25 28 32 35 38 41 45 48 51 54 58 61 65 68 71 75 77 79 81 83 84 84 83 80 76 72 68 65 63 62 62 62 63 65 68 72 75 78 80 79 79 78
13 16 18 21 24 25 28 29 31 34 37 41 44 47 51 55 58 61 64 68 71 75 78 80 82 84 84 82 79 74 69 65 61 59 57 55 54 53 53 53 54 57 62 68 74 78 80 81 81
18 20 23 24 27 29 30 32 33 37 41 43 46 50 54 57 62 65 68 72 75 78 80 82 84 83 80 75 70 65 61 58 56 55 54 53 51 50 49 48 48 49 53 59 67 74 79 82 84
20 23 25 27 30 31 32 34 34 39 42 46 49 53 57 61 65 68 72 75 78 80 82 83 82 79 75 69 65 61 58 57 56 55 55 54 53 51 50 48 47 47 47 50 57 66 74 80 84
23 25 27 26 28 31 34 36 36 41 45 49 53 56 60 64 68 72 75 78 80 81 82 81 78 74 71 68 65 63 61 60 59 58 57 56 55 53 52 50 49 47 46 46 48 54 64 74 81
24 27 29 31 32 32 36 38 39 44 48 52 56 60 64 69 72 75 78 79 80 81 80 78 75 72 70 67 65 63 60 59 57 55 54 54 54 53 53 52 50 49 47 45 45 47 52 61 72
25 27 29 31 35 36 37 42 42 49 53 56 59 64 68 72 75 77 79 79 80 80 78 75 73 71 68 65 61 58 55 53 51 49 48 47 48 49 50 50 51 50 49 48 46 45 47 51 59
26 28 30 32 35 38 41 46 49 52 56 59 63 67 71 74 76 77 79 79 79 78 76 74 71 67 63 60 56 53 51 49 47 46 44 43 43 43 44 46 48 49 50 49 47 45 44 46 51
27 29 31 34 39 43 46 49 51 53 58 63 67 70 72 74 76 78 79 79 78 77 75 72 67 62 58 56 54 52 51 49 48 46 44 42 41 40 40 41 43 45 47 48 48 46 44 44 45
28 31 35 39 42 44 46 48 52 56 61 64 68 70 73 75 77 79 79 78 77 76 73 67 62 58 56 55 55 54 53 52 50 48 45 43 41 40 38 38 39 41 44 46 47 46 45 44 43
29 31 34 38 41 42 46 50 54 57 61 64 68 72 75 77 77 78 78 77 76 74 69 63 59 57 57 57 56 55 54 52 51 49 46 44 42 40 39 38 37 37 39 42 45 46 46 44 43
31 33 35 38 42 46 49 51 54 58 61 65 70 73 75 76 77 77 77 76 75 70 65 60 58 58 58 58 57 55 54 52 50 48 46 43 41 39 38 37 36 36 36 38 41 44 46 45 44
31 34 37 40 44 48 50 53 56 59 63 68 71 73 75 76 77 77 76 75 72 67 62 59 59 59 59 58 57 55 54 52 50 47 44 42 40 39 37 36 35 35 35 36 38 41 44 45 45
32 35 37 40 43 48 52 55 56 60 64 69 71 73 75 76 76 76 75 74 69 64 60 60 59 59 59 58 57 55 53 51 48 46 44 42 41 40 38 37 35 34 34 34 35 38 41 44 45
32 36 39 41 43 46 50 56 58 62 66 70 73 74 75 75 75 75 74 71 66 62 60 60 60 59 59 58 57 55 52 49 47 45 44 44 43 42 41 39 37 35 33 33 34 35 38 41 44
Wind_Direction
79 86 130 37 306 351 20 17 343 304 295 290 287 289 294 298 302 302 300 298 295 292 289 286 283 280 277 275 272 269 267 265 264 262 260 259 259 258 258 257 257 255 254 252 252 251 250 247 245
78 69 65 55 45 51 39 35 12 344 328 313 302 299 300 304 309 311 313 314 311 308 304 300 296 292 289 285 282 279 276 273 270 268 266 264 262 261 260 259 257 256 254 253 251 251 250 248 246
77 72 55 56 55 56 52 49 35 17 358 337 323 319 318 319 321 320 322 322 320 317 313 310 306 302 298 295 291 288 284 281 277 274 271 268 266 264 263 261 259 257 255 254 252 251 250 249 247
78 75 63 60 59 57 55 49 39 27 15 359 350 342 339 336 331 329 328 325 322 319 314 311 307 304 300 296 292 289 286 283 280 278 275 272 270 268 265 263 261 259 257 255 253 252 250 249 247
80 76 67 61 58 54 50 43 36 29 22 15 6 359 351 343 338 334 331 326 321 317 312 308 305 301 298 294 291 288 285 283 280 278 276 274 272 269 267 265 263 260 258 256 254 252 250 249 247
74 68 63 61 59 56 53 48 41 34 26 21 13 1 351 342 336 331 326 320 315 311 307 304 300 296 293 291 288 286 284 282 280 278 276 274 272 270 268 266 264 262 260 258 256 254 252 249 248
64 65 62 60 58 56 52 48 42 35 27 22 14 359 348 339 332 326 321 317 313 309 306 302 299 297 294 291 289 286 284 282 279 277 275 274 272 270 268 266 264 262 260 258 256 254 252 250 248
66 66 63 62 60 57 56 52 47 40 29 16 4 352 343 335 328 324 319 316 312 309 307 304 301 299 296 294 291 289 286 284 282 279 277 275 273 270 268 266 264 262 260 258 256 254 252 251 249
65 64 64 63 62 59 55 48 39 28 13 360 350 342 335 329 324 321 318 315 312 310 308 306 303 301 299 297 294 292 290 287 284 282 279 277 275 272 270 268 265 262 260 258 256 254 252 251 249
70 69 67 64 59 52 41 30 17 5 354 346 339 334 329 325 322 320 318 316 314 312 310 307 305 303 301 299 297 294 292 290 287 285 282 280 277 275 272 270 267 264 261 258 256 254 252 250 249
74 71 66 58 47 35 21 9 358 349 341 336 332 328 325 323 321 320 318 316 313 311 309 307 305 303 301 299 297 295 292 290 288 285 283 281 278 275 273 270 268 265 263 260 257 254 252 250 248
73 67 56 43 29 16 3 353 346 339 335 330 327 325 323 322 320 318 316 314 312 310 309 307 305 303 301 299 297 295 293 291 288 285 283 280 277 275 272 269 267 265 262 260 258 255 252 249 247
64 54 41 25 12 2 352 344 339 334 330 327 324 323 321 319 318 316 315 313 312 310 309 307 305 304 302 300 298 296 294 292 289 286 283 280 277 275 272 268 265 263 261 259 257 254 252 249 247
49 34 20 8 358 351 344 337 333 330 326 324 322 321 320 319 318 317 316 314 312 311 309 308 307 305 303 301 299 297 295 293 290 288 286 283 280 277 273 270 266 262 259 256 254 252 251 249 246
25 10 359 352 346 341 338 332 328 327 324 323 322 321 320 319 318 317 316 314 313 312 311 310 308 307 305 303 301 299 297 296 294 292 289 286 283 280 276 273 268 264 260 256 253 250 248 247 245
359 351 343 340 337 334 332 331 327 325 324 323 323 322 321 320 319 318 317 316 315 314 313 312 311 309 307 305 304 302 301 299 296 294 291 288 285 282 279 275 271 266 261 256 252 249 246 244 243
335 334 336 334 332 331 330 331 329 326 324 324 323 322 322 321 320 320 320 319 318 317 316 314 313 311 309 308 306 305 303 300 297 295 292 290 287 284 281 277 273 267 261 255 251 248 245 242 241
329 329 330 331 330 331 330 331 330 326 325 324 324 324 323 324 323 323 322 322 321 320 318 317 315 313 312 310 309 307 304 301 298 295 293 290 287 285 282 280 276 271 264 257 251 247 243 241 239
320 322 326 329 329 329 329 330 330 325 325 326 326 327 327 327 327 326 325 324 323 322 320 318 316 315 314 312 309 306 303 300 297 295 292 289 286 284 281 279 276 274 270 265 257 249 243 239 237
319 321 323 325 327 328 328 328 329 326 328 329 330 331 330 329 329 328 327 325 324 323 321 319 318 317 315 313 311 308 305 302 298 295 292 289 286 283 279 277 274 272 271 269 265 257 248 241 236
318 321 324 327 329 330 326 324 330 329 331 333 333 332 331 330 330 329 328 326 325 324 323 321 321 319 318 316 314 311 309 306 302 299 295 291 287 283 279 275 272 270 268 267 268 263 256 247 239
318 321 325 327 328 327 326 326 335 334 334 334 333 333 333 332 331 330 329 328 327 326 325 324 323 322 321 320 319 317 315 312 309 306 301 296 291 285 280 275 271 268 266 265 265 265 261 253 244
320 324 326 326 325 326 331 335 339 335 333 335 336 336 335 333 332 331 330 330 329 328 327 327 326 326 326 326 325 324 322 320 317 314 310 305 299 293 285 278 271 267 264 262 262 262 261 257 250
321 323 323 326 329 334 337 335 335 335 337 338 338 336 335 334 333 332 332 331 330 330 330 330 330 331 331 330 329 328 326 324 321 318 315 311 306 300 293 285 277 269 264 261 259 258 259 257 254
321 326 329 331 333 335 331 332 338 339 339 339 337 336 335 335 335 334 333 333 332 332 332 333 334 334 333 332 331 329 327 325 323 320 317 313 309 304 298 291 283 275 267 261 257 255 255 255 253
325 328 330 331 330 329 331 337 340 339 339 338 336 336 336 336 336 334 334 334 334 334 335 336 336 335 334 333 332 330 329 327 325 323 320 317 314 309 303 297 289 280 271 263 257 253 252 251 251
325 327 329 329 329 332 336 335 338 339 338 337 337 338 337 337 336 336 336 335 335 336 337 337 337 336 335 334 333 331 330 329 327 325 324 321 318 314 309 302 294 286 277 267 259 254 250 248 247
324 326 328 331 333 333 333 336 339 338 338 339 339 339 338 338 338 337 337 337 338 338 339 338 338 337 336 335 334 333 332 331 329 328 326 324 322 319 315 310 300 292 282 272 262 254 249 247 245
324 326 330 332 333 333 333 335 338 338 340 340 340 340 339 339 339 338 338 339 339 340 340 339 339 338 338 337 336 335 334 333 332 330 328 326 323 321 317 313 308 298 287 278 267 256 249 245 243
326 328 330 332 333 332 331 334 338 339 341 341 341 341 340 340 340 340 340 340 341 341 341 340 340 340 339 339 338 337 336 335 334 332 330 327 324 321 317 313 309 303 293 282 272 260 250 244 241